AMC-7 (GE-7)

Last updated on Sun Feb 09 2020 04:43:00 GMT+0000 (Coordinated Universal Time)

1 26495U 00054B 20039.80314819 -.00000226 00000-0 00000-0 0 9994 2 26495 1.0587 97.4160 0002065 238.2382 260.1143 0.99137252 70964
UTC large
Height (km)
Speed (km/s)
/
Latitude / Longitude
Inclination (degrees)
Orbital Period (minutes)
Azimuth
Elevation
Range (km)
Doppler Factor

Next 0 passes for location: London (51.5072 / 0.1276)

Sorry there are no passes over London.
AMC-7 (GE-7)